Terug naar catalogus

STARLINK-32609

ActiefCommunicatieVLEO
NORAD 61929·PAYLOAD·🇺🇸 United States

Gelanceerd Nov 11, 2024 vanaf Cape Canaveral Space Force Station

Loading…

Volgende Passages (komende 24 uur)

TLE

VersSource: CelesTrak SupGP

Epoch: Sep 15, 2026, 03:38 UTC

1 61929C 24207T   26258.15187500 -.00003946  00000+0 -14287-3 0  2588
2 61929  43.0001 291.6613 0001392 264.8604 287.4219 15.27589315    10

Volg STARLINK-32609 in realtime met AllMySat

Download on the App Store